Location: Songkhla
(7.2000°N, 100.6000°E)
Time: 20:03:32
(UTC+07:00)

Cosmos 1633 Rocket - Pass Details

Date: 16 April 2026
Orbit: 599 x 617 km, 82.5° (Epoch: 20 May)

Event Time Altitude Azimuth Distance (km) Brightness Sun altitude
Rises 18:41:15 0° 183° (S) 2,878 6.4 -4.5°
Reaches altitude 10° 18:43:28 10° 183° (S) 1,973 5.6 -5.1°
Maximum altitude 18:47:51 88° 93° (E) 619 3.1 -6.1°
Drops below altitude 10° 18:52:13 10° 5° (N) 1,968 5.7 -7.2°
Sets 18:54:25 0° 4° (N) 2,870 6.6 -7.7°
